Weather History for Buffalo, SD

Change the Weather History Date:

Wednesday, December 11, 2013

  Actual Average Record
Temperature  
Mean Temperature 8 °F 21 °F  
Max Temperature 26 °F 32 °F 64 °F (2004)
Min Temperature -11 °F 11 °F -14 °F (2000)
Degree Days  
Heating Degree Days 57 44  
Month to date heating degree days 660 467  
Since 1 July heating degree days 2450 2365  
Cooling Degree Days 0 0  
Month to date cooling degree days 0 0  
Year to date cooling degree days 587 513  
Moisture  
Dew Point 2 °F    
Average Humidity 74    
Maximum Humidity 90    
Minimum Humidity 57    
Precipitation  
Precipitation 0.00 in 0.01 in 0.01 in (2008)
Month to date precipitation 0.57 0.07  
Year to date precipitation 12.72 14.30  
Sea Level Pressure  
Sea Level Pressure 30.33 in    
Wind  
Wind Speed 9 mph (WSW)    
Max Wind Speed 21 mph    
Max Gust Speed 24 mph    
T = Trace of Precipitation, MM = Missing Value Source: NWS Daily Summary

Daily Weather History Graph

Daily Weather History Graph

Search for Another Location

Airport:

Trip Planner

Search our weather history database for the weather conditions in past years. The results will help you decide how hot, cold, wet, or windy it might be!

Date:

Astronomy

Dec. 11, 2013 Rise Set
Actual Time 7:24 AM MST 4:10 PM MST
Civil Twilight 6:50 AM MST 4:44 PM MST
Nautical Twilight 6:13 AM MST 5:22 PM MST
Astronomical Twilight 5:37 AM MST 5:58 PM MST
Moon 12:57 PM MST (12/11) 1:34 AM MST (12/11)
Length of Visible Light 9h 53m
Length of Day
8h 45m
Waxing Gibbous, 72% of the Moon is Illuminated
Dec 11
Waxing Gibbous
Dec 17
Full
Dec 25
Last Quarter
Jan 1
New
Jan 7
First Quarter

Hourly Weather History & Observations

Time (MST) Temp. Windchill Dew Point Humidity Pressure Visibility Wind Dir Wind Speed Gust Speed Precip Events Conditions
12:56 AM -5.1 °F -19.1 °F -9.9 °F 80% 30.42 in - West 6.9 mph - N/A   Unknown
1:56 AM -2.9 °F -15.0 °F -7.1 °F 82% 30.41 in - WNW 5.8 mph - N/A   Unknown
2:56 AM -4.0 °F -16.3 °F -8.0 °F 83% 30.42 in - West 5.8 mph - N/A   Unknown
3:56 AM -9.9 °F -24.9 °F -14.1 °F 82% 30.43 in - South 6.9 mph - N/A   Unknown
4:56 AM -4.0 °F -14.6 °F -8.0 °F 83% 30.42 in - SSW 4.6 mph - N/A   Unknown
5:56 AM -2.9 °F - -7.1 °F 82% 30.41 in - Calm Calm - N/A   Unknown
6:56 AM -0.9 °F - -6.0 °F 79% 30.41 in - Calm Calm - N/A   Unknown
7:56 AM -2.0 °F -13.9 °F -7.1 °F 79% 30.41 in - SSE 5.8 mph - N/A   Unknown
8:56 AM -0.0 °F -15.3 °F -4.0 °F 83% 30.39 in - South 9.2 mph - N/A   Unknown
9:56 AM 5.0 °F -5.6 °F 1.0 °F 84% 30.38 in - South 5.8 mph - N/A   Unknown
10:56 AM 9.0 °F -2.2 °F 3.9 °F 80% 30.34 in - South 6.9 mph - N/A   Unknown
11:56 AM 12.0 °F 4.1 °F 5.0 °F 73% 30.31 in - SW 4.6 mph - N/A   Unknown
12:56 PM 19.0 °F 10.0 °F 9.0 °F 65% 30.28 in - West 6.9 mph - N/A   Unknown
1:56 PM 21.9 °F 6.9 °F 10.9 °F 63% 30.25 in - WSW 19.6 mph - N/A   Unknown
2:56 PM 21.9 °F 8.7 °F 10.9 °F 63% 30.25 in - West 15.0 mph - N/A   Unknown
3:56 PM 21.0 °F 8.1 °F 10.0 °F 63% 30.26 in - West 13.8 mph - N/A   Unknown
4:56 PM 21.0 °F 7.1 °F 9.0 °F 60% 30.26 in - West 16.1 mph - 0.01 in   Unknown
5:56 PM 17.1 °F 2.5 °F 8.1 °F 68% 30.27 in - West 15.0 mph - N/A   Unknown
6:56 PM 16.0 °F 2.3 °F 7.0 °F 68% 30.28 in - West 12.7 mph - N/A   Unknown
7:56 PM 19.0 °F 7.5 °F 8.1 °F 62% 30.28 in - West 10.4 mph - N/A   Unknown
8:56 PM 16.0 °F 4.4 °F 7.0 °F 68% 30.27 in - WSW 9.2 mph - N/A   Unknown
9:56 PM 19.9 °F 9.3 °F 10.0 °F 65% 30.25 in - West 9.2 mph - N/A   Unknown
10:56 PM 23.0 °F 12.4 °F 12.0 °F 63% 30.23 in - West 10.4 mph - N/A   Unknown
11:56 PM 26.1 °F 14.0 °F 12.9 °F 58% 30.22 in - West 15.0 mph - N/A   Unknown